Location: Eaton Estates
(41.3089°N, 82.0057°W)
Time: 23:49:57
(UTC+00:00)

Cosmos 1626 - Pass Details

Date: 17 June 2021
Orbit: 489 x 493 km, 82.5° (Epoch: 02 August)

Event Time Altitude Azimuth Distance (km) Brightness Sun altitude
Exits shadow 02:10:48 13° 108° (ESE) 1,506 4.0 -10.7°
Maximum altitude 02:11:58 15° 87° (E) 1,421 4.0 -10.8°
Drops below altitude 10° 02:14:03 10° 52° (NE) 1,691 4.7 -11.1°
Sets 02:16:54 0° 28° (NNE) 2,580 6.0 -11.5°
